{"data":{"norad_id":63480,"intl_designator":"2025-070W","name":"STARLINK-33721","alt_names":[],"object_type":"PAYLOAD","status":"ACTIVE","operator":null,"country":"US","launch_date":"2025-04-06","launch_site_code":"AFETR","launch_vehicle":null,"mission":null,"orbit_class":"UNKNOWN","rcs_meters":null,"size_class":null,"mass_kg":null,"dimensions":null,"purposes":["comms"],"wikipedia_slug":null,"has_3d_model":false,"image_url":null,"decayed_at":null,"tle_current":{"epoch":"2026-05-25T03:49:21.662400Z","epoch_age_seconds":61589,"freshness":"FRESH","line1":"1 63480U 25070W   26145.15927850  .00014387  00000+0  53113-3 0  9998","line2":"2 63480  43.0010 184.2727 0001196 285.8013  74.2707 15.27592078 64717","mean_motion":15.27592078,"eccentricity":0.0001196,"inclination_deg":43.001,"raan_deg":184.2727,"arg_perigee_deg":285.8013,"mean_anomaly_deg":74.2707,"bstar":0.00053113,"rev_number":6471,"period_min":94.266003387849,"perigee_km":482.19233686923,"apogee_km":483.83352393258,"semimajor_km":6861.1499304009,"source":"CELESTRAK","updated_at":"2026-05-25T13:38:20.009476Z"}}}